Weather History for Hyannis, MA

Change the Weather History Date:

Saturday, December 1, 2012

  Actual Average Record
Temperature  
Mean Temperature 40 °F -  
Max Temperature 46 °F 44 °F 63 °F (2001)
Min Temperature 33 °F 31 °F 9 °F (1965)
Degree Days  
Heating Degree Days 26    
Moisture  
Dew Point 35 °F    
Average Humidity 82    
Maximum Humidity 93    
Minimum Humidity 64    
Precipitation  
Precipitation 0.04 in - - ()
Sea Level Pressure  
Sea Level Pressure 30.53 in    
Wind  
Wind Speed 5 mph (East)    
Max Wind Speed 9 mph    
Max Gust Speed -    
Visibility 10 miles    
Events Rain    
Averages and records for this station are not official NWS values.
T = Trace of Precipitation, MM = Missing Value Source: NWS Daily Summary

Daily Weather History Graph

Daily Weather History Graph

Search for Another Location

Airport:

Trip Planner

Search our weather history database for the weather conditions in past years. The results will help you decide how hot, cold, wet, or windy it might be!

Date:

Astronomy

Dec. 01, 2012 Rise Set
Actual Time 6:49 AM EST 4:11 PM EST
Civil Twilight 6:18 AM EST 4:42 PM EST
Nautical Twilight 5:43 AM EST 5:16 PM EST
Astronomical Twilight 5:10 AM EST 5:50 PM EST
Moon 6:59 PM EST (12/1) 8:59 AM EST (12/1)
Length of Visible Light 10h 24m
Length of Day
9h 22m
Waning Gibbous, 92% of the Moon is Illuminated
Dec 1
Waning Gibbous
Dec 6
Last Quarter
Dec 13
New
Dec 20
First Quarter
Dec 28
Full

Hourly Weather History & Observations

Time (EST) Temp. Windchill Dew Point Humidity Pressure Visibility Wind Dir Wind Speed Gust Speed Precip Events Conditions
1:56 AM 34.0 °F 29.8 °F 23.0 °F 64% 30.54 in 10.0 mi NE 4.6 mph - N/A   Overcast
2:56 AM 33.1 °F 27.7 °F 23.0 °F 66% 30.53 in 10.0 mi NE 5.8 mph - N/A   Overcast
3:56 AM 35.1 °F 31.0 °F 24.1 °F 64% 30.53 in 10.0 mi NE 4.6 mph - N/A   Overcast
4:56 AM 35.1 °F 32.2 °F 24.1 °F 64% 30.53 in 10.0 mi ENE 3.5 mph - N/A   Overcast
5:56 AM 35.1 °F 32.2 °F 25.0 °F 67% 30.53 in 10.0 mi NE 3.5 mph - N/A   Overcast
6:56 AM 36.0 °F - 27.0 °F 70% 30.56 in 10.0 mi Calm Calm - N/A   Overcast
7:56 AM 36.0 °F 31.1 °F 28.0 °F 73% 30.58 in 10.0 mi NE 5.8 mph - N/A   Overcast
8:22 AM 35.6 °F 29.9 °F 30.2 °F 81% 30.58 in 7.0 mi East 6.9 mph - 0.00 in   Overcast
9:15 AM 35.6 °F 32.8 °F 33.8 °F 93% 30.59 in 10.0 mi ENE 3.5 mph - 0.01 in Rain Light Rain
9:40 AM 37.4 °F 33.8 °F 33.8 °F 87% 30.58 in 10.0 mi East 4.6 mph - 0.01 in Rain Light Rain
9:56 AM 37.0 °F 34.5 °F 35.1 °F 93% 30.59 in 10.0 mi East 3.5 mph - 0.01 in Rain Light Rain
10:56 AM 39.0 °F 36.8 °F 36.0 °F 89% 30.56 in 10.0 mi East 3.5 mph - 0.02 in   Overcast
11:56 AM 39.9 °F - 37.0 °F 89% 30.54 in 10.0 mi Calm Calm - 0.00 in Rain Light Rain
12:56 PM 41.0 °F 38.0 °F 37.9 °F 89% 30.53 in 10.0 mi ENE 4.6 mph - 0.00 in Rain Light Rain
1:56 PM 41.0 °F 39.0 °F 37.9 °F 89% 30.52 in 10.0 mi East 3.5 mph - 0.01 in   Overcast
2:56 PM 41.0 °F 38.0 °F 37.9 °F 89% 30.52 in 10.0 mi East 4.6 mph - 0.00 in   Overcast
3:56 PM 41.0 °F 38.0 °F 37.0 °F 86% 30.53 in 10.0 mi East 4.6 mph - N/A   Overcast
4:37 PM 42.8 °F 41.1 °F 37.4 °F 81% 30.52 in 10.0 mi ESE 3.5 mph - N/A   Overcast
4:56 PM 42.1 °F 37.1 °F 37.9 °F 85% 30.53 in 10.0 mi ESE 8.1 mph - N/A   Overcast
5:56 PM 42.1 °F 40.2 °F 39.0 °F 89% 30.53 in 10.0 mi NE 3.5 mph - N/A   Overcast
6:56 PM 41.0 °F - 39.0 °F 93% 30.55 in 10.0 mi Calm Calm - N/A   Overcast
7:56 PM 44.1 °F 40.1 °F 39.9 °F 85% 30.51 in 10.0 mi ESE 6.9 mph - N/A   Mostly Cloudy
8:56 PM 45.0 °F 41.2 °F 41.0 °F 86% 30.50 in 10.0 mi ESE 6.9 mph - N/A   Overcast
9:45 PM 46.4 °F 43.5 °F 42.8 °F 87% 30.49 in 10.0 mi ESE 5.8 mph - N/A   Overcast
9:53 PM 46.4 °F 41.9 °F 42.8 °F 87% 30.48 in 10.0 mi ESE 9.2 mph - N/A   Overcast
9:56 PM 46.0 °F 41.9 °F 42.1 °F 86% 30.48 in 10.0 mi ESE 8.1 mph - N/A   Overcast
10:56 PM 46.9 °F - 42.1 °F 83% 30.48 in 10.0 mi ESE 5.8 mph - N/A   Overcast
11:56 PM 46.9 °F - 42.1 °F 83% 30.46 in 10.0 mi ESE 5.8 mph - N/A   Overcast